Theta_e
346 347 347 348 349 350 351 354 354 355 355 354 354 353 353 352 351 351 351 351 350 350 349 351 351 352 352 352 352 351 351 351 350 351 351 351 350 349 349 347 346 346 346 346 346 346 346 346 346 346 345 344 344 344 347 347 347 347 347 348 348 348 348 348 348 348 348 348 349 349 349 349 350 349 350 349 351 350 348 348 347 346 346 348 348
345 348 348 348 349 349 352 354 355 354 354 354 353 353 353 352 352 351 352 350 350 350 352 352 352 351 351 350 351 352 351 350 350 351 350 350 349 348 348 347 347 347 346 346 345 345 345 344 344 344 344 344 344 344 344 344 345 346 345 347 347 348 348 348 347 346 347 347 347 348 347 348 348 348 348 348 348 348 347 347 347 345 345 348 350
347 349 348 349 350 351 353 354 354 354 354 354 354 353 352 352 351 351 352 350 349 349 351 351 351 350 350 350 351 352 351 351 351 350 348 348 348 347 347 346 346 347 346 346 346 345 344 343 343 342 342 342 343 343 343 343 343 345 345 346 347 347 348 346 347 346 345 346 345 345 346 347 347 348 348 348 347 346 345 346 347 347 345 348 348
346 348 349 348 347 349 353 354 354 353 353 353 353 352 352 351 350 350 350 349 349 348 348 349 349 349 349 350 351 351 350 351 350 349 349 349 348 347 347 346 346 345 345 346 345 344 343 342 341 340 340 339 340 342 342 343 343 343 344 344 346 346 346 346 347 346 345 346 345 343 342 340 343 347 348 347 348 346 343 343 344 346 347 348 347
347 348 350 349 349 348 351 353 353 353 353 353 352 352 352 351 350 349 349 349 348 348 348 348 348 348 348 348 349 350 350 350 350 350 349 348 348 347 346 346 345 346 345 346 344 343 343 342 341 340 338 337 338 340 341 342 343 342 343 343 343 345 346 346 346 345 344 344 343 341 339 340 340 345 346 348 346 345 344 343 343 343 343 345 347
347 348 350 350 349 348 349 352 353 353 353 352 352 352 351 351 350 349 349 348 348 348 347 347 347 348 348 348 348 348 349 349 349 350 350 349 348 348 347 346 346 345 344 344 344 343 342 341 339 339 337 336 337 339 340 342 342 342 342 342 342 344 344 344 343 343 342 340 341 339 339 340 340 341 345 343 343 341 343 344 343 342 342 343 344
347 348 350 350 349 348 348 351 352 352 352 352 352 352 351 351 350 350 349 348 348 347 347 347 347 347 347 347 348 348 348 348 349 349 348 349 348 347 346 345 345 344 344 344 343 342 340 339 338 337 336 335 337 338 339 340 341 341 341 341 341 343 343 342 342 340 341 334 333 337 338 338 339 340 344 343 342 340 340 342 342 342 342 342 342
347 348 349 349 349 347 348 352 352 352 352 352 352 352 351 351 350 349 349 348 347 347 347 347 346 347 347 347 348 347 347 348 348 348 348 348 347 347 346 345 345 344 344 344 343 341 339 337 337 335 334 334 336 338 338 339 339 339 339 340 341 341 341 340 340 339 340 330 333 335 337 337 337 339 344 342 341 340 339 340 341 343 341 340 340
345 347 349 349 348 345 348 349 353 352 351 351 351 351 351 350 351 349 348 347 347 347 347 347 347 346 347 347 347 347 347 348 348 348 347 347 346 346 346 345 345 344 343 343 342 340 338 336 335 334 332 334 336 336 337 338 338 337 339 340 340 340 340 339 340 336 334 329 333 336 336 337 337 337 342 344 341 338 338 334 335 337 339 338 338
344 346 348 348 348 344 347 349 352 352 351 351 350 350 351 350 350 349 348 347 347 347 347 346 347 347 347 347 347 347 347 347 348 347 347 347 344 345 345 344 344 343 343 342 341 340 338 336 334 332 331 334 335 335 335 336 337 338 339 340 339 339 338 338 336 333 329 334 335 336 337 339 336 335 338 340 340 338 334 333 332 332 333 335 337
345 347 347 347 346 344 349 352 351 350 351 351 351 350 351 350 350 349 348 347 347 346 346 346 347 347 347 347 346 347 347 347 347 347 346 345 344 344 343 343 342 342 341 341 340 339 337 335 334 331 330 332 333 334 334 334 335 337 337 338 338 338 338 337 332 328 329 332 332 333 338 340 334 334 338 338 337 337 333 332 332 333 332 333 335
346 347 346 345 344 344 349 349 350 351 351 351 350 350 350 350 349 349 348 348 347 346 346 347 347 347 347 347 347 347 347 347 346 346 345 344 344 344 343 343 342 341 340 339 339 338 336 335 333 329 329 331 331 331 332 333 333 335 336 337 337 337 335 334 328 327 327 331 331 331 330 331 332 336 340 339 337 335 333 332 333 333 333 333 334
344 345 345 345 344 342 347 350 349 350 350 350 350 350 349 349 349 348 349 348 347 346 346 346 347 346 346 347 346 346 346 346 346 346 345 344 343 343 343 343 341 340 339 338 337 337 335 333 331 329 329 330 330 330 330 331 332 333 334 335 334 334 332 330 327 327 327 328 330 330 330 328 330 336 338 339 338 335 333 333 333 333 334 333 333
342 344 344 344 342 341 340 344 347 350 350 349 349 349 349 348 348 348 348 350 348 348 346 347 347 346 346 346 346 346 346 345 345 345 344 343 343 343 343 342 340 339 338 337 336 335 334 331 329 326 328 329 329 329 328 329 330 331 332 332 332 331 328 328 328 326 328 328 329 330 330 331 329 335 335 337 337 334 332 332 333 332 332 333 332
335 340 343 343 342 341 337 339 343 344 347 348 348 349 348 348 348 347 347 349 348 347 347 347 347 346 346 346 346 346 346 344 345 345 344 343 343 343 343 342 340 339 338 337 336 335 333 330 327 325 326 326 327 328 327 327 327 329 330 329 329 329 326 323 325 325 326 327 328 329 328 330 335 334 334 335 335 333 331 332 332 331 332 331 331
332 335 339 340 341 340 340 339 337 339 342 345 346 347 347 347 347 347 348 347 348 347 348 348 347 346 346 346 345 345 346 345 344 343 343 343 342 342 342 342 340 338 338 337 336 334 333 329 325 323 324 324 325 325 325 325 326 327 328 328 330 328 325 323 323 324 324 325 326 327 328 330 334 334 334 335 334 331 331 332 332 331 331 330 330
331 331 333 335 338 339 340 343 337 334 335 337 340 342 344 346 347 346 347 348 348 348 348 348 348 347 346 346 345 345 345 344 344 343 343 343 342 342 341 341 340 338 337 336 336 334 332 329 325 322 321 323 322 322 322 324 325 325 326 327 328 325 323 321 321 321 322 323 324 326 327 329 334 333 334 334 333 330 331 331 331 331 331 330 330
329 331 330 331 332 335 338 338 337 342 339 336 333 338 342 345 345 345 344 344 345 347 347 348 347 346 345 344 343 344 344 343 344 343 342 342 342 341 341 341 339 337 336 336 335 333 330 327 324 321 320 320 319 319 320 322 323 323 325 327 324 323 322 321 319 319 319 322 321 324 326 334 332 333 334 334 331 331 331 330 330 330 329 330 328
326 327 327 329 330 332 334 335 339 339 339 340 339 336 333 339 341 342 341 342 341 341 344 344 342 343 342 340 339 338 336 337 339 340 341 339 337 336 341 340 338 337 336 335 334 333 330 326 324 322 319 318 318 319 319 320 321 322 323 322 319 317 317 317 316 316 316 316 318 321 325 334 331 331 333 332 330 331 331 330 329 329 329 329 329
315 316 318 321 325 328 331 334 335 337 338 339 341 337 331 332 336 337 338 340 339 339 339 338 336 335 334 333 330 329 327 329 327 333 334 337 335 334 337 338 338 337 336 335 334 333 330 327 324 323 321 319 319 318 319 320 321 321 322 319 315 313 311 312 312 312 310 311 316 317 328 332 332 331 332 331 329 330 330 329 329 328 329 329 328
314 314 314 315 316 317 319 321 329 334 336 338 340 340 335 329 331 331 332 335 335 336 335 327 324 323 326 322 324 334 335 333 331 334 327 333 326 327 334 337 338 337 336 335 334 333 330 327 324 322 321 320 321 317 318 319 320 320 317 314 310 306 307 309 310 309 306 306 310 315 328 329 332 332 331 330 330 329 329 329 328 328 329 328 329
309 311 313 315 315 315 317 318 319 322 331 337 341 342 336 333 338 337 335 333 329 327 330 336 332 331 321 325 335 336 336 335 335 332 332 329 323 325 331 336 337 335 335 335 334 333 331 328 325 323 321 320 316 303 305 312 315 315 312 309 302 302 304 306 308 306 302 302 308 317 325 327 329 332 333 333 335 333 332 327 328 328 328 329 328
308 310 311 314 313 314 315 316 317 319 322 332 337 341 339 339 337 337 337 330 332 333 334 336 337 336 335 335 335 337 336 335 334 332 333 325 327 324 330 333 334 332 334 336 334 333 331 329 326 324 322 322 308 306 306 303 303 309 306 301 298 301 302 302 304 305 301 303 303 318 320 324 326 329 333 332 333 333 334 333 327 326 327 328 329
307 308 309 313 312 312 313 314 316 317 317 325 333 338 340 340 338 338 337 336 334 334 336 335 334 335 336 336 334 331 335 334 330 327 329 330 324 324 327 328 329 328 329 330 332 333 332 331 328 327 321 314 311 311 309 306 305 305 304 300 297 299 301 300 301 301 299 304 304 315 317 318 319 321 326 325 327 330 331 333 335 334 329 328 328
307 308 309 311 311 311 312 313 315 317 316 320 328 330 336 340 339 338 337 337 336 336 336 335 334 333 333 334 335 335 334 332 331 331 333 330 329 331 330 330 329 327 325 326 325 325 323 320 316 315 312 312 311 311 312 310 308 307 307 305 302 299 299 300 300 299 298 300 304 315 316 316 317 318 318 319 321 326 328 330 332 335 335 331 328
308 309 309 310 310 312 311 312 314 315 316 318 326 329 331 331 333 337 336 336 336 337 336 335 335 335 334 334 334 333 333 332 333 332 332 330 327 327 330 329 327 327 327 326 323 323 323 322 321 315 313 311 311 311 309 309 309 307 307 306 304 300 300 298 299 299 299 298 302 314 316 316 315 318 318 319 319 321 325 327 329 332 334 334 334
307 309 311 311 311 311 311 312 314 315 316 317 325 328 331 331 332 333 335 335 335 334 333 334 334 335 334 333 333 332 332 332 332 331 331 330 330 328 328 329 329 329 328 326 324 325 325 325 321 317 313 311 310 309 309 309 307 308 307 306 304 302 301 299 299 298 298 299 305 312 315 315 314 316 318 319 319 319 319 322 326 329 330 331 333
308 309 310 311 309 309 310 314 318 315 315 318 324 329 329 328 327 327 329 328 328 328 328 328 329 330 330 331 331 332 332 331 331 330 328 330 330 329 330 329 330 329 328 327 327 325 324 322 321 318 314 311 311 309 310 310 309 307 308 306 305 303 302 301 300 301 299 299 300 307 313 316 313 314 315 319 320 319 320 319 320 323 325 327 329
307 308 308 309 309 310 312 318 319 321 316 320 327 327 326 324 324 324 324 323 324 324 323 324 323 324 326 328 330 330 329 329 329 329 329 329 328 328 328 326 326 327 327 327 326 325 324 323 322 320 314 312 311 310 311 310 310 308 309 307 306 304 303 303 303 304 303 299 299 302 313 314 314 314 313 317 318 320 321 321 321 322 321 322 323
306 307 307 309 310 312 318 318 318 320 323 325 324 323 322 321 321 320 320 321 321 321 320 320 320 321 322 325 326 327 327 325 324 325 324 323 322 321 321 321 320 322 323 323 323 322 321 320 320 320 319 316 313 310 310 310 309 308 308 307 307 306 304 305 305 304 303 303 300 299 309 312 315 314 314 316 316 318 318 318 318 320 321 322 322
306 306 307 309 310 316 317 316 319 318 319 320 320 320 319 318 318 318 317 317 317 317 317 317 318 319 320 321 323 324 324 323 322 321 320 320 319 319 319 320 319 320 321 321 320 319 318 319 319 319 318 317 315 314 314 310 309 309 307 308 307 307 307 307 306 305 304 304 303 302 303 309 313 314 314 315 316 316 317 317 317 318 320 320 320
304 305 307 309 314 314 314 314 316 316 316 316 317 318 317 316 315 314 313 312 312 312 312 312 312 314 316 318 320 320 320 320 319 318 318 318 318 317 317 317 318 319 319 318 318 319 318 317 318 317 317 317 316 315 315 311 310 310 307 309 308 309 307 307 307 306 306 305 302 302 301 303 308 313 312 315 315 314 315 316 318 318 318 318 319
305 306 307 310 311 312 312 312 313 314 314 314 314 314 314 313 312 311 310 309 308 307 307 307 308 309 310 312 313 317 319 318 317 315 313 315 316 315 315 314 315 316 316 315 315 316 316 316 316 316 316 315 314 312 312 311 310 310 310 310 309 309 307 308 307 307 304 303 301 300 300 300 299 304 308 314 313 312 314 316 316 316 317 318 319
304 305 307 309 310 310 311 310 310 310 310 310 310 310 309 309 309 308 307 307 305 305 305 305 305 306 307 308 309 310 312 314 315 314 313 312 312 312 312 312 313 313 313 313 312 312 311 310 312 314 311 311 308 307 306 305 305 306 306 307 309 309 308 309 306 304 302 300 299 299 299 299 298 299 300 306 309 311 313 313 313 314 315 316 318
304 305 306 308 307 308 308 307 307 307 307 307 307 306 307 306 305 305 305 304 303 303 304 304 304 305 305 306 307 307 308 308 308 307 306 305 305 306 308 310 311 311 311 310 308 307 306 306 308 308 305 304 304 302 302 301 301 303 303 305 306 308 310 307 304 302 300 299 299 298 298 298 298 298 299 297 301 305 310 310 311 312 313 314 316
303 305 306 308 306 307 307 306 306 305 305 305 305 305 304 303 302 303 301 301 300 300 300 301 302 303 303 304 305 305 306 306 306 305 303 303 302 302 303 304 305 306 307 308 307 305 303 302 302 303 301 300 300 299 299 298 299 301 302 304 306 308 308 304 304 303 301 299 298 298 298 298 298 298 300 298 298 300 305 308 308 309 310 311 314
304 305 306 306 305 305 305 306 305 304 304 304 303 302 301 300 300 299 299 299 298 298 298 298 298 299 300 301 303 304 304 304 304 304 303 302 301 301 301 301 302 302 302 302 303 305 304 301 300 300 300 298 297 296 297 297 298 299 300 302 304 306 304 302 302 302 301 299 297 297 297 297 298 300 297 297 297 296 300 305 306 306 307 309 311
304 306 306 305 305 304 304 305 305 303 302 303 304 300 300 299 298 298 297 297 296 296 296 296 296 296 297 297 298 300 301 302 303 303 302 301 300 300 299 299 299 299 298 298 298 300 303 301 298 297 296 295 294 294 294 296 297 298 298 299 302 302 300 300 300 299 298 297 296 295 295 295 296 297 296 296 295 294 293 297 301 302 303 306 308
304 306 306 306 305 305 304 303 304 302 301 301 300 299 299 298 297 296 295 294 294 294 294 294 294 294 294 295 296 296 296 298 298 299 298 297 296 296 296 296 296 296 295 295 295 297 299 300 297 295 295 293 292 291 292 294 295 296 297 298 300 297 297 298 298 297 296 297 297 296 295 293 294 295 295 294 294 292 291 291 292 294 295 302 306
304 304 305 305 305 305 305 304 303 304 303 302 301 299 298 297 295 294 293 293 293 292 292 292 292 292 293 293 293 293 294 294 294 295 294 293 292 292 292 294 294 293 292 291 291 292 293 296 296 294 291 290 290 290 290 293 292 295 297 299 297 295 295 296 296 296 296 296 295 294 292 292 293 293 294 293 294 292 289 289 290 291 293 297 302
303 304 303 302 303 303 302 300 301 302 301 300 299 298 296 295 294 293 291 291 291 291 290 290 291 291 291 292 292 292 292 292 292 292 291 292 291 290 290 290 290 290 290 289 289 289 290 291 292 293 291 288 288 289 289 291 293 296 297 297 296 294 294 294 294 294 296 295 295 292 290 290 290 291 293 293 293 291 289 288 288 289 291 292 294
300 303 302 301 300 300 299 299 299 298 297 296 296 295 295 294 292 291 290 290 289 288 288 289 289 290 290 290 290 290 291 291 291 290 290 290 289 289 289 288 288 289 289 289 289 290 288 289 289 288 289 288 286 287 288 289 287 288 290 293 293 294 293 293 293 292 292 292 294 291 289 288 288 289 292 290 291 290 289 287 287 287 289 291 291
300 301 302 300 298 298 297 297 297 296 296 296 295 294 294 293 292 290 290 288 289 289 288 289 289 289 289 289 289 289 290 289 289 290 289 288 288 288 288 288 288 288 288 287 288 287 287 287 287 287 286 286 286 288 287 287 284 287 289 288 287 289 292 290 291 292 289 289 291 291 289 287 287 287 290 288 287 289 289 287 287 287 287 289 290
298 299 301 299 298 296 295 295 295 295 294 294 293 292 291 291 290 290 289 288 287 288 288 288 288 288 287 288 288 288 289 288 289 288 288 288 288 287 287 288 287 288 287 287 287 286 287 286 286 287 286 284 284 284 286 286 286 285 284 287 287 284 281 284 287 288 288 287 286 288 287 286 286 286 287 287 286 287 288 287 287 287 287 288 289
297 298 299 298 296 295 295 294 294 294 293 293 292 291 290 289 289 288 288 287 286 286 286 286 286 287 287 287 287 287 288 288 288 288 288 287 287 287 287 287 287 287 287 286 286 286 286 286 286 286 285 283 283 283 284 285 285 286 286 282 281 281 282 283 284 283 285 286 284 285 287 285 285 286 285 286 285 286 287 287 286 286 286 287 288
296 297 298 297 295 294 294 294 294 293 292 292 291 291 290 288 287 286 284 284 283 283 283 283 284 285 285 286 287 287 287 287 287 287 287 287 287 287 287 287 286 286 287 286 286 286 285 285 285 285 285 284 283 283 282 285 285 285 284 284 284 282 279 280 280 278 282 283 282 284 283 284 284 284 285 285 284 285 287 286 286 286 286 286 287
295 296 297 296 295 294 294 294 293 293 293 292 291 291 289 288 286 285 285 284 283 283 284 284 285 285 286 286 286 286 286 286 286 286 286 286 286 286 286 286 286 286 286 286 285 284 285 285 285 285 284 285 284 282 282 282 282 284 284 283 283 282 282 280 277 278 275 277 280 282 282 283 283 283 284 284 284 284 284 285 285 285 286 286 286
295 295 294 294 293 293 293 292 292 292 292 291 290 290 288 287 286 285 285 284 284 283 284 284 285 285 285 285 285 286 286 286 286 285 286 286 286 285 285 285 285 285 285 284 284 284 284 285 285 284 284 284 283 282 281 281 281 281 283 282 282 282 281 281 280 279 278 276 277 280 281 282 282 282 283 283 283 283 283 284 284 285 285 286 286
293 292 292 291 291 291 290 290 290 290 290 290 289 288 288 287 286 286 285 285 285 285 285 286 285 285 284 284 284 285 285 285 285 285 285 285 285 285 284 284 284 284 284 284 284 284 283 283 283 283 283 283 283 282 281 280 280 280 280 280 280 280 279 279 279 279 277 276 276 277 278 280 280 280 282 282 282 283 283 283 284 285 286 286 285
293 292 290 290 290 290 290 289 289 289 289 289 289 288 287 287 286 285 285 285 285 285 285 284 284 284 283 283 283 284 284 284 284 285 284 284 284 284 284 283 283 284 284 283 283 283 282 282 282 282 282 282 282 283 282 280 280 280 280 280 279 279 278 279 278 278 276 277 277 276 277 277 277 278 281 280 281 282 283 283 283 283 285 285 286
292 291 290 289 289 289 289 289 288 289 288 288 288 287 287 286 286 286 285 285 285 284 284 283 283 283 283 283 283 283 283 283 283 283 283 283 283 283 283 283 283 283 283 282 282 282 282 281 281 281 281 281 281 280 282 281 280 280 280 279 278 279 279 278 277 278 277 275 275 275 276 277 277 277 277 280 282 281 281 281 282 282 284 284 285
Wind_Speed
2 7 6 10 11 10 10 12 13 13 12 13 13 13 13 12 12 11 10 10 12 11 11 13 13 13 13 13 12 12 13 14 15 16 17 17 17 17 17 17 16 17 17 18 18 18 18 17 17 17 17 16 16 15 15 15 14 13 13 12 11 11 11 11 11 13 14 16 16 17 17 16 17 18 18 19 19 18 17 16 13 11 8 10 14
6 3 6 8 12 10 10 12 13 13 13 13 13 13 12 12 11 10 9 10 11 12 12 12 12 12 12 12 12 11 12 14 15 16 17 16 16 16 17 17 16 17 17 18 18 18 17 17 17 16 16 15 15 15 14 14 13 13 12 12 12 11 10 10 10 9 8 9 12 13 15 16 16 16 17 18 19 20 17 17 15 9 7 15 16
6 5 3 6 9 9 9 11 12 12 12 13 13 13 12 11 11 10 9 10 10 11 12 11 12 12 11 13 12 11 12 13 15 15 15 15 15 15 15 17 17 17 17 17 17 18 17 17 16 16 15 15 14 14 14 13 12 12 12 12 12 12 12 10 9 8 8 7 8 10 13 14 16 16 16 17 18 18 18 18 17 16 10 17 15
9 5 3 6 7 5 7 8 9 11 12 12 12 12 11 11 11 10 10 10 11 10 11 12 11 11 10 12 13 12 12 13 14 15 15 15 15 14 14 16 17 17 17 18 17 17 17 17 17 16 15 14 14 13 13 12 12 12 12 12 12 12 12 13 13 14 12 8 9 8 6 6 9 16 17 18 18 18 16 17 18 18 19 18 18
10 6 5 6 4 4 6 8 10 11 12 12 11 11 11 11 10 10 10 10 10 11 11 11 11 11 10 10 13 12 11 12 13 14 14 14 15 15 15 16 16 17 17 17 17 17 17 17 16 15 14 14 13 13 12 12 12 12 12 12 11 12 13 13 13 14 14 10 10 7 6 7 6 15 17 19 18 18 16 16 17 17 17 18 18
9 7 6 7 6 5 8 8 11 12 12 12 11 11 11 10 10 10 10 10 10 10 10 10 11 10 10 10 11 12 12 12 12 13 14 14 15 15 15 15 15 15 16 17 16 17 17 16 16 15 14 13 13 12 12 12 11 11 11 11 11 12 13 13 13 12 11 9 9 6 6 7 6 7 18 17 16 16 16 17 17 15 16 17 16
11 8 8 8 6 7 9 9 12 12 12 12 11 10 10 10 10 10 9 10 10 10 10 10 10 10 10 10 10 11 11 12 12 13 14 13 14 14 14 14 14 15 16 16 16 17 17 16 15 15 14 14 13 13 12 12 11 11 11 11 11 12 12 11 10 12 8 5 6 6 6 6 5 4 18 16 16 16 16 16 16 15 15 15 16
9 7 6 7 7 9 11 10 11 13 14 12 11 11 10 10 10 9 9 9 10 10 10 10 10 10 10 10 10 11 11 11 12 12 12 13 13 14 14 14 14 16 16 16 17 16 16 15 15 14 14 14 13 13 12 12 12 11 11 11 11 11 11 11 10 9 9 6 6 5 6 5 5 5 16 17 17 17 16 16 16 15 15 15 14
9 8 8 7 7 12 11 10 11 12 13 12 12 11 10 10 9 9 9 8 9 10 10 10 10 9 9 9 10 10 11 11 11 11 11 12 13 13 14 14 14 15 15 16 15 15 15 14 14 14 14 14 13 13 13 12 12 12 12 12 12 12 11 11 9 9 7 7 6 6 6 5 5 6 15 17 17 17 17 13 10 15 15 14 13
8 8 8 8 8 12 11 11 11 11 12 12 10 12 11 10 9 9 9 9 9 10 10 10 9 9 9 9 9 9 10 11 10 10 10 12 12 12 13 15 15 15 15 15 15 14 14 14 13 14 14 14 13 13 13 13 13 12 13 13 13 13 12 10 9 7 6 7 6 7 8 10 5 6 12 15 17 16 15 14 12 12 11 14 14
9 7 5 7 9 13 12 11 11 9 11 11 10 10 11 10 9 10 9 9 9 9 10 10 9 9 8 9 9 9 10 10 10 10 11 12 10 13 14 15 15 14 14 14 15 14 14 14 13 14 14 14 13 13 13 13 13 13 13 13 13 13 12 10 8 6 8 8 7 6 7 10 6 5 13 15 15 15 15 13 13 12 13 13 13
8 8 6 6 8 11 11 11 11 11 9 9 9 9 9 8 8 9 8 9 9 8 9 9 8 8 8 8 9 9 9 9 10 10 11 10 10 12 14 14 14 15 15 14 14 14 14 13 13 13 13 13 13 13 13 13 13 13 13 14 14 14 12 11 6 7 7 7 6 5 5 5 5 9 16 15 15 15 15 13 13 13 13 13 14
6 7 7 6 6 9 9 10 11 11 10 9 9 9 9 8 7 7 8 8 8 8 9 8 8 7 7 8 8 8 8 9 10 11 12 11 11 11 13 13 14 14 14 14 13 14 14 13 13 13 13 13 13 13 13 12 13 13 13 14 15 15 12 12 7 9 8 7 7 7 6 4 5 13 14 15 15 15 13 13 13 13 13 13 14
6 6 6 5 4 7 9 8 8 10 9 10 10 9 9 8 7 6 6 6 7 7 8 8 7 6 6 8 8 8 8 8 10 11 10 10 10 11 13 14 14 14 14 13 13 13 13 13 12 12 12 12 12 13 12 12 12 12 13 14 14 13 12 8 8 8 8 8 7 8 7 5 5 12 12 14 15 15 13 13 14 14 14 14 14
7 4 4 5 5 5 8 9 8 8 9 8 7 9 9 9 8 6 6 6 6 7 8 8 8 6 6 7 7 8 8 8 10 10 10 9 10 11 12 13 14 13 13 12 12 12 13 12 12 12 12 12 12 12 12 12 12 12 13 13 12 11 12 7 7 7 7 7 6 7 7 6 11 12 13 13 14 14 12 13 14 13 14 13 13
6 5 5 3 4 4 4 8 9 9 7 8 8 9 9 9 8 7 5 4 7 7 7 8 8 8 7 9 8 6 8 9 11 10 10 10 10 10 11 13 13 13 12 12 11 12 12 12 11 11 11 11 11 11 11 12 12 12 12 13 10 11 13 9 7 7 7 6 6 7 7 5 12 12 13 14 14 13 11 12 13 13 13 13 13
8 7 7 4 3 2 3 5 7 10 8 7 8 8 8 6 8 6 3 4 6 7 7 7 7 9 9 9 9 7 8 9 11 10 10 11 10 10 11 12 13 13 12 11 11 11 11 11 11 10 10 10 10 11 11 11 12 12 12 11 10 13 13 11 8 6 6 6 6 6 6 5 9 12 13 13 13 12 10 11 12 13 12 11 12
6 7 7 5 5 5 3 2 5 6 5 6 7 8 8 8 8 7 6 3 3 6 8 6 6 7 7 8 8 8 9 8 9 10 10 10 9 8 11 12 13 12 12 11 11 11 11 11 11 11 10 10 10 11 11 11 12 12 11 9 10 12 12 11 7 6 6 6 6 5 6 8 10 12 13 13 13 10 10 10 11 11 11 11 11
7 7 5 6 5 4 4 3 0 4 5 4 3 5 7 7 7 7 7 5 4 4 6 7 6 7 7 6 7 8 8 8 8 9 8 7 6 7 12 12 13 12 11 11 10 10 11 10 10 11 10 11 11 11 10 11 11 11 10 9 11 11 11 7 5 6 6 5 5 5 6 11 9 11 12 13 11 10 10 11 11 9 10 10 10
7 8 8 8 7 6 5 4 4 2 1 4 5 5 7 8 6 6 10 7 6 6 4 6 8 7 6 6 5 4 5 6 9 8 9 8 6 5 10 10 12 12 11 11 10 10 10 9 9 9 9 10 10 9 9 10 10 9 8 9 10 10 7 6 5 6 5 5 4 5 7 12 10 10 10 11 11 10 10 10 9 10 10 10 8
6 6 6 7 7 7 8 7 6 4 2 1 4 5 6 9 7 7 6 4 7 8 7 6 7 6 5 5 6 4 2 3 5 5 8 6 6 6 9 10 10 10 10 10 11 10 9 8 8 8 8 8 5 6 7 8 9 8 10 10 10 7 6 6 6 5 4 4 4 5 9 11 12 10 8 10 10 9 10 9 8 9 9 10 9
5 6 6 7 7 7 7 7 6 7 5 3 2 4 5 6 5 5 5 4 1 3 5 5 5 4 5 4 3 4 4 4 4 4 5 6 5 7 10 10 10 8 8 10 10 10 9 8 7 7 6 5 4 3 4 6 8 8 8 9 6 6 6 5 5 5 4 4 4 6 9 9 10 10 9 10 10 10 10 7 8 7 7 9 8
6 5 6 7 6 6 7 7 6 6 7 4 1 4 6 5 5 5 5 5 5 3 1 4 4 4 5 4 4 4 3 5 5 5 5 4 7 8 10 11 10 8 7 8 8 8 8 7 6 5 5 3 2 2 4 5 6 8 7 6 4 5 5 5 4 5 4 3 4 7 8 7 7 7 8 10 10 10 12 11 6 5 4 3 6
4 3 3 4 5 6 6 6 5 6 5 4 1 3 5 5 5 5 5 5 5 4 5 3 3 2 2 2 1 2 5 4 6 9 6 4 5 6 10 11 10 8 7 5 6 6 5 5 4 4 4 3 4 5 6 5 6 5 6 6 5 5 5 4 4 3 3 3 3 7 8 8 6 5 6 7 8 8 10 11 13 12 8 4 4
2 3 4 4 4 4 5 6 7 5 4 5 3 1 4 4 5 5 5 4 3 3 2 3 1 2 1 3 3 3 3 3 3 2 4 3 5 5 5 5 5 4 6 4 4 3 4 2 2 3 2 4 5 5 6 5 5 5 5 6 5 5 5 6 4 3 3 3 3 6 7 9 9 8 7 6 5 6 7 9 11 12 12 8 2
4 5 4 4 4 4 4 5 6 6 4 4 4 3 1 2 3 5 5 4 4 4 4 3 3 3 4 2 4 5 3 3 4 3 3 3 2 2 5 5 4 5 4 4 3 3 3 2 3 2 2 3 4 4 4 5 5 5 4 4 4 4 4 4 4 4 2 3 3 7 7 9 10 10 10 9 7 6 6 8 9 11 12 11 10
4 4 4 3 5 4 5 5 6 6 5 3 3 3 6 5 6 5 7 5 6 6 6 6 6 5 4 4 5 2 3 3 3 2 3 2 3 2 2 0 3 3 2 4 2 2 2 3 4 3 3 4 3 4 4 4 4 4 4 4 3 4 4 3 4 4 2 2 4 7 8 10 13 14 13 12 11 10 9 8 8 9 9 11 10
3 4 5 5 5 6 6 6 5 4 5 3 2 6 5 7 7 8 7 7 8 7 6 6 6 7 5 5 6 3 5 5 3 3 4 4 4 2 4 2 3 5 3 2 3 2 2 4 4 3 3 2 3 2 4 4 4 4 4 3 3 3 4 3 4 4 4 2 3 6 8 8 11 13 15 15 15 14 13 11 10 10 9 10 11
5 6 4 4 6 6 6 6 5 4 3 2 6 6 6 7 7 7 7 6 8 6 6 7 7 5 6 6 5 6 5 5 5 4 4 5 5 6 5 5 5 3 2 2 3 4 4 4 4 3 2 2 2 3 4 4 4 3 5 4 3 3 3 3 3 4 5 4 3 4 7 8 10 13 14 16 17 17 17 16 15 14 12 12 11
5 5 5 5 5 7 6 6 5 5 5 7 5 7 6 8 7 8 6 7 7 6 8 7 6 5 6 6 6 6 6 5 6 5 6 7 6 6 6 6 5 5 5 6 4 4 4 5 5 4 4 3 3 2 4 4 3 3 4 3 4 3 2 3 3 3 4 4 3 3 6 6 9 12 14 16 17 17 18 19 18 17 16 15 14
5 6 5 5 5 5 6 6 6 6 6 7 7 8 7 8 8 7 7 7 6 7 7 7 6 6 6 7 7 7 6 7 7 6 6 6 6 6 6 5 6 5 4 5 4 5 4 5 5 4 3 4 4 3 5 3 1 1 3 3 3 4 4 4 4 4 4 5 5 5 5 8 9 10 14 16 16 18 19 19 19 18 17 17 16
4 5 4 5 4 6 5 6 5 4 8 7 8 8 9 8 8 8 8 7 7 8 8 7 7 7 7 7 7 7 7 8 8 7 7 7 7 7 6 7 6 5 5 5 5 5 6 5 6 5 4 4 5 5 5 6 6 6 4 4 4 5 4 4 4 5 6 6 7 7 7 8 10 10 12 13 16 18 19 19 18 18 18 18 18
2 3 5 4 6 5 6 7 5 5 8 8 9 7 9 8 8 9 8 8 8 8 8 7 7 7 7 8 9 7 7 7 7 8 7 7 7 7 7 7 6 5 5 6 6 6 7 6 7 6 7 7 8 7 6 6 6 6 6 7 6 5 3 5 6 7 7 7 7 7 6 7 6 10 12 11 13 17 19 20 19 19 19 19 19
2 3 4 6 5 4 4 4 5 8 8 8 9 8 9 9 8 9 9 9 8 8 8 7 7 7 8 9 9 9 8 7 8 8 7 7 7 8 7 7 7 7 7 7 8 7 7 7 6 7 7 7 7 6 6 6 5 5 6 5 6 5 5 7 6 7 7 7 7 7 7 7 6 6 7 10 11 14 20 21 22 22 22 21 20
4 4 5 5 7 5 4 5 6 9 9 10 10 10 8 9 9 9 9 9 8 9 8 7 8 7 8 9 10 10 10 10 9 9 8 7 8 8 9 7 7 7 8 6 7 7 8 9 7 7 7 7 7 6 6 5 5 6 5 5 5 6 5 6 6 7 7 7 7 7 7 7 6 6 6 7 9 14 18 22 22 22 23 22 21
4 4 4 5 7 6 6 7 8 10 9 9 11 9 9 11 10 9 9 10 9 8 8 8 7 7 8 9 10 10 10 10 10 9 9 8 8 8 7 7 8 7 7 7 8 8 8 9 9 8 8 8 7 7 5 5 5 5 5 5 5 5 5 5 6 6 6 7 7 7 7 8 8 7 7 8 8 10 17 17 20 21 22 22 21
3 4 5 6 7 7 7 8 9 9 10 11 11 10 10 11 11 10 10 10 9 8 8 7 7 8 8 9 9 9 10 10 9 9 9 8 8 8 7 8 6 7 8 8 8 7 8 8 9 8 7 6 7 6 6 6 6 4 4 5 5 5 5 5 6 6 7 9 7 7 8 8 8 8 7 7 8 8 12 15 16 17 17 20 21
3 3 6 7 6 6 7 8 7 7 9 10 7 10 11 11 11 9 10 11 10 8 7 7 8 8 8 9 9 8 9 9 9 9 9 9 9 9 8 8 7 8 9 9 8 7 6 7 9 8 8 7 7 7 7 6 5 5 5 5 6 6 6 7 6 7 8 8 7 8 7 7 7 7 7 7 7 8 8 10 13 13 13 17 20
3 4 4 6 7 6 8 9 8 9 10 9 10 11 12 11 10 9 10 10 9 8 7 9 8 8 9 8 9 9 9 9 10 9 10 9 9 9 9 9 8 9 9 9 9 8 8 7 8 7 6 7 7 6 5 5 4 4 6 6 7 8 7 8 8 7 7 7 7 7 8 7 7 7 7 7 6 7 8 9 8 8 9 14 18
4 4 4 6 6 6 5 6 7 8 7 8 7 9 8 8 10 9 11 9 8 9 9 9 8 9 8 9 9 9 8 9 10 10 10 10 10 9 10 9 9 9 10 11 9 8 7 7 9 8 8 8 10 9 8 6 3 8 7 8 7 9 10 9 9 8 7 7 7 7 8 7 7 7 7 6 6 7 8 8 8 7 7 10 15
5 3 3 5 4 5 5 7 6 5 6 6 6 7 9 9 9 9 10 7 8 8 9 8 9 8 9 9 9 9 9 10 10 10 10 10 9 8 9 9 8 9 10 9 7 9 8 6 5 7 10 11 12 11 11 4 6 7 6 6 7 5 8 10 10 9 8 7 6 7 7 9 8 7 6 7 6 7 7 8 8 8 7 7 8
4 3 4 6 6 6 7 7 6 7 6 5 6 6 5 5 9 8 9 7 7 8 9 8 8 8 10 9 9 9 10 10 9 9 10 9 9 9 9 9 8 8 9 8 10 10 11 10 5 7 7 10 9 10 11 5 7 3 3 3 5 4 5 8 9 7 7 6 6 7 7 9 9 7 6 7 7 6 7 7 8 8 8 7 7
6 3 3 7 7 7 6 7 6 7 7 7 7 9 7 6 9 8 9 10 7 7 8 7 8 10 10 9 9 9 9 10 9 9 10 9 9 9 9 8 8 7 10 11 11 11 9 9 9 6 6 6 7 8 11 9 3 2 0 4 3 2 3 6 5 5 6 5 6 7 7 8 9 7 6 7 8 8 6 6 8 9 8 8 7
5 3 6 8 6 6 5 8 7 7 8 7 9 10 10 10 10 11 9 10 9 7 9 8 9 11 11 9 9 8 9 10 9 9 9 10 9 9 8 9 9 9 9 10 10 10 9 9 9 9 4 8 7 9 9 10 9 4 4 2 0 2 4 3 6 5 4 3 8 7 7 8 9 9 8 8 8 8 7 7 8 8 8 8 7
4 5 5 6 6 7 7 8 8 8 8 10 11 12 12 12 12 11 10 11 8 7 9 9 8 9 9 9 8 7 9 10 9 10 9 10 9 9 9 9 9 8 8 9 9 8 8 7 8 9 9 5 7 5 8 9 11 8 3 3 4 5 0 4 6 4 5 6 7 8 7 10 10 9 7 8 9 8 8 8 8 8 8 8 7
5 5 5 7 8 8 8 8 8 8 10 9 10 9 10 12 10 10 10 9 9 7 9 8 7 8 9 5 8 8 9 10 9 9 9 9 10 9 9 9 9 8 8 8 8 9 10 10 8 7 8 7 6 8 7 6 6 9 8 5 2 2 1 4 5 5 6 0 4 6 6 8 7 8 6 8 8 8 9 9 9 9 8 8 7
5 6 6 7 8 8 9 9 9 8 8 8 6 7 8 7 8 8 9 10 12 6 6 5 8 7 7 9 8 8 9 10 9 9 9 9 9 9 9 9 9 8 7 9 9 8 7 7 7 9 7 7 7 9 8 6 5 7 7 5 6 4 2 3 3 2 6 5 4 6 4 8 7 6 6 8 6 7 8 7 8 8 8 7 7
7 7 7 7 9 8 8 7 7 7 5 6 6 6 10 9 10 10 9 9 11 11 8 7 7 7 9 9 8 8 8 8 9 8 8 8 8 9 8 8 9 8 8 8 8 6 7 7 7 7 8 7 7 8 6 6 7 4 5 8 7 5 5 5 4 1 2 6 8 3 1 7 8 6 6 8 8 9 10 9 8 8 8 7 7
7 7 7 7 6 6 7 7 8 7 6 8 9 7 9 10 10 11 11 8 10 9 8 7 8 8 10 8 8 7 8 8 8 8 8 8 8 8 8 8 9 8 7 8 8 8 9 8 9 9 8 8 7 5 7 6 7 6 5 6 4 5 4 3 3 5 3 2 6 5 10 4 3 5 7 6 7 9 9 8 8 8 7 8 8
7 7 7 7 6 6 7 8 8 7 8 9 10 10 9 9 11 11 15 11 9 9 8 9 8 7 10 8 7 7 6 7 7 7 8 7 8 8 8 8 8 7 8 7 7 9 8 8 8 7 7 8 6 7 6 5 5 4 5 4 6 5 6 6 5 6 3 1 2 8 6 10 11 6 7 4 6 9 8 7 7 7 8 8 8
7 8 7 7 7 7 8 9 7 8 9 10 12 11 9 8 10 11 13 14 11 11 11 9 8 7 9 7 7 6 5 6 6 7 7 7 8 8 8 8 7 7 7 7 7 7 7 7 6 7 8 7 6 6 6 5 5 6 6 6 5 4 2 2 3 3 2 2 4 5 6 4 6 10 3 6 9 8 6 6 6 6 6 7 7
Wind_Direction
224 146 147 143 141 151 149 141 129 123 119 114 108 107 107 105 102 100 100 94 88 90 90 86 84 83 81 86 90 93 92 88 85 80 75 75 74 74 73 73 72 70 67 64 62 61 60 57 55 52 50 48 47 46 44 42 40 40 38 36 33 37 45 50 47 50 54 54 56 60 59 59 57 56 55 56 53 53 50 48 42 41 43 52 52
178 163 146 147 146 150 148 136 128 125 121 116 111 107 104 103 100 98 93 95 93 87 88 89 88 83 81 85 94 93 87 90 88 83 79 79 79 79 78 76 73 70 68 66 64 61 59 56 53 50 48 46 45 44 44 42 40 37 34 32 27 20 27 41 46 40 35 44 51 59 62 60 62 62 60 57 54 51 49 47 46 44 36 49 51
146 139 159 143 139 154 147 133 129 126 120 114 110 107 107 107 105 101 97 96 95 94 94 92 90 85 85 80 83 88 93 93 88 87 87 85 82 80 79 77 73 70 68 65 62 59 57 55 52 49 46 44 44 43 42 43 42 40 35 31 24 14 8 20 34 42 36 41 56 52 61 56 57 61 64 60 56 50 45 44 44 45 44 46 50
136 141 144 130 136 132 121 126 123 121 117 113 111 111 110 111 110 108 105 101 99 97 97 99 91 85 81 80 79 85 87 86 93 94 94 91 88 84 80 77 75 72 68 63 59 58 56 54 51 49 46 43 41 42 42 41 42 41 38 32 24 13 6 8 11 14 24 66 72 52 50 51 52 59 60 63 57 52 48 44 42 41 38 38 46
137 138 139 130 125 127 137 127 126 126 123 119 116 116 114 113 111 111 108 102 98 95 94 90 88 85 85 79 78 75 84 90 91 96 94 92 87 82 79 78 74 70 65 63 60 57 54 52 50 48 45 44 42 41 42 42 42 41 38 33 24 14 10 9 7 17 17 64 69 56 53 46 44 55 57 55 53 48 47 47 44 41 38 37 36
139 143 140 129 134 153 142 138 137 135 129 127 124 122 120 116 114 111 108 106 100 97 95 95 92 91 87 82 78 80 82 90 93 92 90 88 86 81 78 75 72 69 67 63 60 57 53 49 47 46 44 42 42 42 42 43 45 43 39 35 26 19 16 12 8 13 18 56 69 62 58 51 45 50 58 55 52 46 43 45 45 42 41 37 35
145 148 144 138 139 149 147 146 143 141 137 135 131 126 124 120 118 115 112 111 108 102 98 99 97 93 92 83 80 82 83 89 92 91 92 89 84 84 82 81 77 71 67 63 59 54 51 48 45 44 43 41 40 41 41 43 44 42 39 35 30 25 23 12 3 1 21 50 73 67 59 58 52 45 63 57 53 49 44 43 43 43 43 40 35
144 146 146 141 142 152 148 149 146 144 144 142 138 133 129 128 121 120 119 118 116 111 107 103 101 98 96 89 84 82 82 86 91 92 89 90 87 87 85 81 77 70 66 63 59 54 50 47 46 45 45 44 41 40 41 42 42 39 37 35 34 31 22 8 360 5 21 63 70 66 62 60 57 50 65 59 56 51 45 39 36 38 42 41 40
148 148 141 138 138 145 148 147 148 147 145 143 141 136 135 131 126 126 127 124 119 117 112 109 106 104 101 98 90 86 86 88 93 94 94 92 90 87 87 82 78 74 68 64 60 56 52 49 48 48 48 46 44 42 42 42 40 37 36 37 36 28 14 7 6 32 46 74 76 71 67 56 53 54 55 61 60 54 48 42 31 33 35 37 38
146 143 146 146 147 145 144 148 146 148 147 143 144 142 137 137 137 135 134 130 123 121 119 115 114 111 109 102 92 89 89 88 94 100 104 93 90 94 92 88 76 71 69 65 61 56 52 51 52 52 52 50 47 45 43 39 37 36 37 36 30 20 13 14 26 39 59 71 74 71 70 68 56 54 57 58 59 57 51 44 44 41 37 35 35
120 128 135 138 144 142 144 145 143 145 148 148 148 145 143 144 144 142 139 135 133 129 125 122 120 120 114 109 106 97 95 92 93 97 94 101 104 92 87 84 83 75 70 64 59 55 51 51 54 55 55 54 51 48 46 41 38 36 37 34 27 20 16 19 40 45 61 68 62 55 60 62 59 61 58 58 56 55 51 46 45 47 46 44 41
106 114 121 117 130 134 138 142 143 144 152 150 150 147 145 143 141 144 142 137 137 134 128 126 126 121 116 113 109 103 97 96 96 96 102 103 95 92 92 89 84 79 71 65 60 55 51 53 55 56 57 57 55 52 47 43 40 37 35 31 26 21 15 18 38 48 54 61 61 54 49 54 57 59 61 61 56 50 47 46 49 52 53 53 50
92 112 118 123 121 119 127 142 144 146 153 154 155 152 152 144 146 152 144 141 139 134 127 125 123 125 120 113 107 101 99 102 101 99 106 105 97 95 94 90 83 78 73 68 62 56 53 56 57 57 58 57 57 55 51 47 43 38 34 31 28 23 14 18 26 47 52 50 42 33 27 27 47 52 55 57 56 52 48 48 48 50 53 53 52
96 102 107 112 108 108 114 127 144 144 149 154 163 148 149 148 154 148 148 144 144 136 131 129 125 122 117 115 108 104 103 104 102 106 109 108 103 100 99 96 89 82 78 72 67 59 57 57 58 59 59 58 57 55 53 49 45 39 34 31 27 23 19 24 40 57 53 45 38 34 28 12 43 46 51 53 55 52 49 50 50 48 48 49 50
80 85 88 96 100 102 110 114 128 128 137 143 154 152 156 152 158 157 162 149 152 141 138 133 131 128 125 121 116 107 98 101 105 106 112 112 110 106 101 98 93 88 83 79 73 67 62 61 60 58 58 58 57 55 53 49 45 37 33 29 26 25 28 30 39 55 52 43 33 28 24 6 36 38 42 44 51 52 49 50 53 54 55 55 54
67 94 104 99 108 113 99 108 118 125 131 145 146 150 161 156 160 171 170 157 157 153 147 141 139 131 117 122 122 128 114 104 108 113 120 117 110 113 110 103 99 92 88 85 80 75 70 67 66 64 61 60 57 55 52 51 46 39 30 28 20 28 36 49 53 52 47 42 34 28 14 4 26 37 45 45 50 52 50 50 52 51 55 57 58
54 62 66 65 66 63 120 109 114 115 130 136 142 148 152 159 151 170 193 181 170 150 153 151 140 136 133 137 139 143 118 117 121 128 132 130 133 126 118 116 111 103 98 94 89 83 78 75 71 68 66 62 60 57 52 48 43 36 32 29 24 38 47 57 61 55 52 40 37 23 8 358 24 38 44 49 48 49 50 50 52 51 55 56 60
54 56 53 51 46 44 46 110 125 125 127 132 141 148 157 157 164 160 187 156 142 155 153 152 146 135 134 138 138 137 133 134 133 135 142 147 140 135 124 126 118 112 109 104 100 95 89 82 75 72 69 65 60 58 55 50 42 37 33 30 35 42 53 65 67 60 54 45 32 21 10 357 31 42 45 48 45 47 47 46 51 49 55 52 56
37 44 46 43 30 25 43 42 52 150 143 140 136 162 154 157 159 157 163 159 95 65 147 146 143 133 133 135 138 135 136 128 128 139 140 138 147 135 131 132 125 119 116 109 106 101 93 88 82 80 77 71 65 61 58 53 48 46 42 40 42 42 50 64 67 61 51 42 28 22 2 4 36 48 48 48 46 46 43 43 48 46 50 59 47
42 30 25 16 10 14 11 20 38 38 167 176 166 147 164 159 162 153 160 163 124 104 115 145 134 133 134 131 117 99 103 121 132 136 140 146 149 132 133 130 127 126 119 114 109 102 95 94 92 86 83 76 68 59 54 53 53 48 45 44 40 42 45 57 67 62 52 39 32 16 8 17 31 49 54 54 51 43 43 40 46 49 42 42 49
28 28 30 17 19 16 7 8 357 357 33 206 184 162 167 161 160 158 133 156 154 133 114 116 120 117 122 119 121 122 124 115 135 143 147 145 134 119 127 129 130 130 124 119 115 108 105 104 106 99 90 84 71 58 39 42 42 43 46 42 42 43 43 54 62 65 55 39 29 7 22 23 22 40 48 45 44 46 41 36 33 52 40 37 26
28 11 20 21 15 8 0 2 354 352 342 5 139 162 146 166 156 145 155 167 69 87 132 135 133 129 122 145 158 152 149 152 146 147 155 148 126 132 140 134 136 136 134 125 121 119 119 120 117 120 112 101 76 55 58 44 50 57 50 47 47 51 55 57 58 59 50 31 22 16 31 29 23 25 31 38 32 32 30 51 27 27 29 24 27
24 11 16 25 10 358 357 352 346 340 342 352 49 145 157 161 157 154 142 159 164 155 132 143 149 149 157 172 180 154 155 165 157 162 149 150 132 142 139 138 140 142 133 121 123 124 126 127 124 126 134 115 42 31 37 37 38 41 40 43 51 53 63 74 77 76 68 51 26 25 32 35 28 20 22 23 20 20 15 23 42 18 356 21 23
20 19 15 17 16 359 344 329 332 331 336 324 40 152 169 170 164 161 155 165 166 180 166 169 133 181 200 106 117 170 163 181 166 147 144 147 119 131 142 141 142 142 126 111 116 125 115 99 89 51 67 75 83 71 66 47 38 34 28 28 36 41 48 58 77 85 72 57 45 36 27 30 26 20 17 17 17 14 6 11 9 13 13 95 21
16 9 15 13 3 354 338 330 325 317 325 315 333 115 188 182 170 161 152 159 154 145 121 118 125 106 111 81 68 73 80 86 83 119 126 132 149 137 134 141 142 137 136 125 129 125 103 87 54 25 46 70 65 68 74 64 48 40 29 24 27 29 34 36 58 49 38 39 42 42 28 17 16 18 15 13 18 14 9 3 4 16 20 16 28
11 33 1 354 348 338 334 315 313 298 294 289 302 304 78 109 119 134 125 107 97 75 65 68 78 119 86 122 110 84 76 92 101 81 61 81 41 100 144 146 149 150 149 146 147 147 139 132 103 96 80 75 88 89 91 97 79 54 37 31 31 35 37 27 43 53 17 13 22 32 22 12 10 10 8 9 11 10 8 4 5 10 14 22 8
25 23 358 346 337 334 329 312 300 289 280 280 285 12 75 73 79 89 96 83 88 84 71 65 61 59 70 81 73 87 138 114 118 103 102 131 127 93 46 139 120 112 170 123 163 176 172 148 129 142 121 102 87 93 87 87 97 86 53 42 31 29 39 26 22 45 15 13 12 24 20 13 5 2 2 2 7 6 3 359 356 3 6 9 13
29 27 7 343 335 329 321 313 310 285 259 273 352 78 85 82 80 80 80 86 83 77 73 63 58 55 53 57 78 77 95 88 87 92 84 83 75 116 148 133 158 190 181 162 172 103 81 104 127 134 113 110 109 92 84 89 85 89 68 44 34 17 27 20 24 21 37 1 10 8 12 15 11 4 2 1 4 6 6 4 357 353 357 358 2
31 19 355 346 330 327 320 328 323 326 289 25 86 91 86 81 77 79 79 83 80 74 80 65 56 53 53 62 73 76 71 76 77 77 80 66 58 63 58 45 42 28 99 58 90 114 95 108 93 82 72 67 70 70 87 79 85 80 83 51 44 23 15 30 29 21 39 31 8 359 2 9 8 9 10 6 8 9 11 11 7 3 0 357 354
29 12 354 340 330 328 337 337 345 358 61 87 90 86 81 86 77 78 80 77 80 83 75 69 61 57 52 55 58 71 71 74 73 59 67 63 61 62 59 50 48 42 53 63 39 74 79 67 66 54 67 74 55 40 89 87 79 83 90 72 39 34 37 46 41 45 49 56 42 359 360 360 9 8 9 12 15 15 14 11 8 6 5 3 359
21 12 350 342 317 340 353 343 8 44 66 78 81 80 78 78 78 79 71 69 70 75 66 67 60 53 55 54 59 60 71 73 72 66 68 69 64 65 64 63 55 48 56 79 69 79 76 76 82 80 52 59 57 45 52 87 92 63 85 69 33 40 27 27 36 37 44 28 41 33 16 10 14 7 10 12 18 16 12 8 7 6 5 3 2
20 2 347 329 353 6 360 6 18 46 77 80 82 82 78 76 77 76 68 62 60 61 60 55 53 47 42 49 59 56 62 66 67 65 66 67 66 61 54 54 47 38 49 50 54 62 65 60 55 52 50 49 39 31 24 42 25 8 12 36 32 44 19 34 46 48 39 37 38 48 50 41 32 23 14 19 21 15 12 13 13 12 12 9 5
16 357 352 2 23 8 11 17 16 56 71 76 79 76 78 73 68 71 68 63 58 58 57 49 50 46 47 44 47 52 65 71 70 68 62 63 61 59 56 52 44 30 39 55 52 44 44 35 36 46 44 38 30 20 18 29 26 16 16 11 16 23 3 43 38 47 43 43 42 43 45 44 41 35 29 29 20 15 15 16 16 15 14 11 9
17 3 15 33 26 22 23 36 28 63 61 68 79 76 74 74 71 72 69 66 61 62 57 53 49 49 50 46 50 49 49 52 62 61 57 61 62 61 56 48 43 44 46 43 52 51 56 48 33 46 41 45 42 23 21 17 9 16 21 5 21 2 13 43 52 55 54 49 46 46 39 40 41 41 37 29 21 15 19 20 18 15 11 7 5
31 27 27 41 48 35 33 55 40 71 67 73 72 77 78 81 77 71 70 70 66 65 59 54 52 51 53 51 49 53 54 58 59 66 60 57 56 54 46 41 44 44 55 46 60 55 57 52 35 48 45 37 33 31 20 13 7 13 8 8 9 359 32 61 59 58 56 55 53 48 41 38 33 37 34 33 24 19 21 22 19 16 13 8 6
36 31 38 62 61 51 51 73 64 74 69 78 77 78 81 83 75 74 76 70 69 64 58 54 53 54 57 57 54 57 59 60 62 64 68 60 62 61 51 44 41 48 49 49 52 53 56 56 42 39 43 32 23 14 10 6 2 7 4 9 6 14 48 59 63 62 59 60 53 45 38 32 28 27 31 31 31 25 22 19 19 17 14 10 8
43 41 68 78 70 66 69 64 73 83 85 75 83 85 82 83 81 77 75 73 71 68 64 62 60 60 58 58 54 61 62 61 63 65 69 65 63 62 52 47 43 51 50 45 49 43 57 66 55 45 50 41 25 9 7 7 360 1 2 6 14 28 58 56 54 58 56 61 56 47 41 36 35 38 35 34 35 28 19 15 12 13 9 8 10
45 62 84 87 83 78 82 79 76 86 91 91 93 95 84 81 82 76 73 73 69 67 66 65 63 58 59 59 54 53 56 61 60 61 68 63 61 61 56 47 47 49 51 46 44 42 52 60 62 46 42 42 30 18 1 355 357 3 13 20 18 42 43 46 48 52 66 66 58 51 47 42 38 32 34 37 35 29 23 12 10 8 3 4 10
67 72 78 97 96 91 101 95 89 91 94 98 101 91 91 85 81 75 71 69 65 62 60 62 58 59 58 58 58 58 55 58 62 62 68 63 61 56 54 47 48 51 53 49 40 37 44 49 60 48 44 49 41 22 3 344 357 18 36 35 53 50 44 43 45 49 60 67 61 50 43 34 37 29 28 35 32 28 22 19 11 7 359 356 4
86 76 76 102 111 111 118 123 115 109 105 104 100 97 93 89 89 83 73 65 66 65 57 61 59 61 57 59 60 61 57 60 61 63 67 65 63 57 58 50 50 55 57 52 43 40 38 44 43 43 36 34 33 18 9 6 4 48 58 68 56 56 51 49 46 42 43 45 51 47 39 27 31 21 21 24 28 25 21 16 11 4 359 354 357
92 79 82 94 89 96 99 82 84 104 112 114 102 103 104 98 82 81 86 77 76 74 67 58 61 60 60 61 61 60 60 61 59 63 66 67 65 62 61 54 52 58 60 59 55 51 45 46 48 44 41 40 26 11 10 7 39 47 46 62 56 46 62 56 49 39 34 35 37 45 34 34 23 21 11 20 25 22 19 12 8 1 358 354 350
105 97 83 93 89 77 87 88 79 81 81 82 94 80 65 93 109 99 97 84 76 74 76 61 65 64 59 59 60 60 62 62 61 65 66 68 69 64 59 56 53 59 65 60 54 49 44 41 31 51 36 53 43 16 7 25 31 52 31 6 5 6 51 59 48 34 34 35 40 42 36 34 21 11 7 23 17 17 14 5 8 358 354 350 348
129 136 113 97 91 87 89 91 89 91 86 88 92 96 92 90 102 102 100 95 69 80 84 80 73 71 61 58 58 59 63 62 61 62 67 63 68 68 62 61 56 55 62 53 49 46 41 41 37 53 43 36 57 27 27 37 48 339 42 78 4 358 328 15 22 27 28 35 37 37 30 29 13 7 4 18 8 7 5 358 4 358 348 347 344
132 127 111 109 102 102 99 99 96 97 100 98 102 97 99 98 88 97 86 91 103 88 83 73 69 70 62 57 54 59 61 66 60 63 67 64 63 67 67 61 57 52 62 64 52 49 40 38 40 39 46 60 30 31 27 26 36 30 29 71 302 82 354 337 343 308 345 48 43 33 27 17 7 6 9 11 358 359 354 352 360 351 344 341 339
135 122 121 118 120 119 112 110 111 109 110 116 114 116 110 99 100 94 96 91 73 77 82 66 62 70 73 56 52 56 63 65 62 61 65 66 63 63 65 63 63 54 59 64 59 54 50 47 42 49 41 67 49 33 22 28 37 31 101 47 7 30 356 274 331 293 349 18 13 24 19 19 8 359 7 357 357 357 354 348 346 343 339 337 339
121 120 122 120 122 121 117 113 112 115 118 119 122 120 119 123 124 118 108 98 88 75 79 94 82 72 75 78 62 53 60 62 60 61 62 64 64 62 64 65 62 58 56 64 62 54 45 46 36 52 50 35 86 51 28 10 42 44 43 65 111 142 300 298 54 321 343 13 24 11 20 24 1 352 0 359 354 353 348 341 336 335 331 331 335
127 127 118 119 118 123 122 123 125 124 126 128 124 117 107 104 108 108 112 114 112 87 96 90 95 91 85 72 67 57 54 64 58 59 60 62 66 62 64 65 64 63 58 62 59 57 53 50 41 50 49 47 48 66 46 355 357 29 31 55 62 56 29 67 14 313 339 320 7 358 4 11 359 350 359 351 344 349 336 332 329 328 325 324 331
134 124 123 123 127 129 126 127 128 128 130 123 109 114 115 115 110 105 104 106 108 120 115 104 92 93 81 73 70 61 56 57 64 60 61 62 65 65 64 66 67 60 64 63 65 59 59 50 53 54 57 51 54 70 65 29 63 355 5 26 18 36 58 74 70 74 268 315 322 328 78 9 357 336 351 344 343 341 334 328 330 328 324 320 323
134 134 134 133 125 119 114 115 116 119 120 117 114 107 112 118 118 119 109 105 111 112 111 100 95 90 86 76 73 68 65 59 59 65 62 64 65 69 66 66 65 61 62 64 61 59 59 57 47 47 50 50 51 59 68 44 47 33 15 9 22 26 13 60 57 46 47 317 296 345 322 341 354 312 339 334 337 332 324 321 319 324 326 321 325
137 131 128 127 123 120 115 113 115 118 121 117 117 116 117 123 122 126 122 123 120 110 105 103 97 95 92 86 80 76 71 69 62 62 67 65 68 67 68 65 66 64 61 63 62 58 54 58 55 59 53 59 43 52 66 59 63 53 62 47 44 0 15 8 16 11 353 39 325 310 316 327 333 317 319 323 335 315 313 316 321 331 333 332 331
137 132 130 132 131 126 124 115 122 120 121 125 125 126 126 128 129 130 127 127 125 122 118 109 111 104 102 97 93 92 84 81 80 70 67 69 70 66 67 66 64 65 64 60 60 65 61 63 59 58 55 57 50 54 52 51 56 49 44 55 62 75 69 48 329 1 65 321 333 293 305 292 282 305 293 336 319 304 301 302 319 326 336 335 338